sat.trackr.live / text

‹ back to catalog

STARLINK-3233

NORAD 49746 · 2021-115Y

PAYLOAD ACTIVE UNKNOWN

§ Identity

Operator
Country
US
Launch date
2021-12-02
Launch site
AFETR
Launch vehicle
Mass (kg)
RCS (m²)

Purposes: comms

External: N2YO · Heavens-Above · Gunter

§ Orbital elements

Epoch: 2026-09-20T04:58:41.441376Z

Period
93.79 min
Inclination
53.1663°
Eccentricity
0.0001714
Mean motion
15.35401109 rev/d
Perigee alt
458.6 km
Apogee alt
460.9 km
Semi-major
6,837.9 km
B*
2.8921e-5
RAAN
349.0945°
Arg perigee
77.2477°
Mean anomaly
282.8717°
Rev number
26,498

§ Raw data

STARLINK-32331 49746U 21115Y   26263.20742409  .00000628  00000+0  28921-4 0  99982 49746  53.1663 349.0945 0001714  77.2477 282.8717 15.35401109264980

JSON: /api/v1/satellites/49746 · /tle

For live sub-satellite position, see the globe view (requires WebGL).

§ Visibility from observer

Set your observer location to see the next 7 days of passes ≥ 10°. The values pass through the URL so the page stays shareable.

No JS? Fill the form by hand. The geolocation button needs JavaScript.